"2009-07-27 00:00:00",1097569,2.089,302.3,1.527,0.038,20.04,108.7201,21.61,22.63,47.63,0,111,13.2,22.43,264.3
"2009-07-27 00:00:30",1097570,2.107,305.4,1.736,0.03,19.99,108.7192,21.61,22.64,47.71,0,111,13.2,22.43,267.4
"2009-07-27 00:01:00",1097571,2.137,298.9,6.639,0.125,19.97,108.7249,21.62,22.65,47.74,0,110.9,13.2,22.45,260.9
"2009-07-27 00:01:30",1097572,2.218,290.8,4.888,0.092,20.01,108.7289,21.63,22.64,48.09,0,111,13.2,22.46,252.8
"2009-07-27 00:02:00",1097573,2.504,304.9,1.428,0.087,20.05,108.7361,21.65,22.67,47.89,0,111,13.2,22.48,266.9
"2009-07-27 00:02:30",1097574,2.118,297.5,4.888,0.13,20.04,108.74,21.66,22.66,47.63,0,111,13.2,22.49,259.5
"2009-07-27 00:03:00",1097575,2.05,297.5,4.95,0.067,20.04,108.7481,21.68,22.67,47.43,0,110.9,13.2,22.51,259.5
"2009-07-27 00:03:30",1097576,2.123,282.7,3.942,0.272,20.01,108.7532,21.69,22.67,47.4,0,111,13.19,22.52,244.7
"2009-07-27 00:04:00",1097577,2.19,275.8,4.687,0.127,20.04,108.7548,21.7,22.67,47.31,0,111,13.19,22.52,237.8
"2009-07-27 00:04:30",1097578,2.012,293.5,5.783,0.07,20.05,108.7563,21.7,22.68,47.37,0,111,13.19,22.53,255.5
"2009-07-27 00:05:00",1097579,2.1,301.3,1.085,0.054,20.08,108.7585,21.71,22.68,47.25,0,110.9,13.19,22.53,263.3
"2009-07-27 00:05:30",1097580,2.165,301.8,0.771,0.05,20.08,108.7569,21.7,22.7,47.26,0,111,13.19,22.53,263.8
"2009-07-27 00:06:00",1097581,2.215,300.2,3.66,0.129,20.14,108.7588,21.71,22.69,47.21,0,111,13.19,22.53,262.2
"2009-07-27 00:06:30",1097582,2.579,293.8,3.542,0.147,20.02,108.7572,21.7,22.68,47.3,0,111,13.19,22.53,255.8
"2009-07-27 00:07:00",1097583,2.174,295.2,3.223,0.178,20.04,108.7591,21.71,22.69,47.4,0,111,13.19,22.54,257.2
"2009-07-27 00:07:30",1097584,1.762,300.5,5.177,0.126,20.03,108.7582,21.71,22.7,47.47,0,110.9,13.19,22.53,262.5
"2009-07-27 00:08:00",1097585,1.756,292.1,6.702,0.155,20.03,108.76,21.71,22.71,47.4,0,111,13.19,22.54,254.1
"2009-07-27 00:08:30",1097586,1.501,287.4,2.675,0.082,20.03,108.7588,21.71,22.71,47.37,0,111,13.19,22.53,249.4
"2009-07-27 00:09:00",1097587,1.698,288.1,4.419,0.111,20.09,108.7609,21.71,22.71,47.24,0,110.9,13.19,22.54,250.1
"2009-07-27 00:09:30",1097588,1.761,287,7.187,0.09,20.06,108.76,21.71,22.71,47.46,0,110.9,13.19,22.54,249.0
"2009-07-27 00:10:00",1097589,1.813,286,5.301,0.139,20.11,108.7603,21.71,22.72,47.4,0,111,13.2,22.54,248.0
"2009-07-27 00:10:30",1097590,1.704,290.1,5.198,0.157,20.08,108.7606,21.71,22.74,47.17,0,110.9,13.2,22.54,252.1
"2009-07-27 00:11:00",1097591,1.968,272.3,10.13,0.156,20.04,108.7603,21.71,22.71,47.36,0,111,13.2,22.54,234.3
"2009-07-27 00:11:30",1097592,2.164,269.7,5.341,0.193,20.05,108.7612,21.71,22.72,47.48,0,111,13.2,22.54,231.7
"2009-07-27 00:12:00",1097593,1.403,276.5,6.918,0.193,20.05,108.7603,21.71,22.72,47.49,0,111,13.2,22.54,238.5
"2009-07-27 00:12:30",1097594,1.324,268.5,3.653,0.186,20.06,108.7606,21.71,22.71,47.44,0,111,13.2,22.54,230.5
"2009-07-27 00:13:00",1097595,1.181,263.2,4.752,0.073,20.04,108.7624,21.72,22.72,47.43,0,111,13.2,22.54,225.2
"2009-07-27 00:13:30",1097596,1.146,265.2,6.571,0.116,20.05,108.7624,21.72,22.71,47.38,0,111,13.2,22.54,227.2
"2009-07-27 00:14:00",1097597,1.701,270.5,3.014,0.145,20.06,108.7627,21.72,22.72,47.27,0,110.9,13.2,22.54,232.5
"2009-07-27 00:14:30",1097598,1.751,268.8,3.22,0.26,20.04,108.7618,21.71,22.71,47.08,0,110.9,13.2,22.54,230.8
"2009-07-27 00:15:00",1097599,2.066,265.6,2.954,0.113,19.99,108.7624,21.72,22.73,47.04,0,110.9,13.2,22.54,227.6
"2009-07-27 00:15:30",1097600,1.866,270.7,2.584,0.158,20.04,108.7621,21.72,22.72,47.14,0,111,13.2,22.54,232.7
"2009-07-27 00:16:00",1097601,1.695,273.8,2.383,0.101,20.07,108.7627,21.72,22.73,47.23,0,110.9,13.2,22.54,235.8
"2009-07-27 00:16:30",1097602,1.86,270,2.163,0.14,20.04,108.7615,21.71,22.72,47.08,0,110.9,13.2,22.54,232.0
"2009-07-27 00:17:00",1097603,1.911,255.1,7.299,0.162,20.04,108.7627,21.72,22.72,46.97,0,111,13.2,22.54,217.1
"2009-07-27 00:17:30",1097604,1.691,252.9,11.71,0.092,20,108.7627,21.72,22.74,47,0,111,13.2,22.54,214.9
"2009-07-27 00:18:00",1097605,1.666,249.1,5.878,0.082,20.02,108.7627,21.72,22.72,47.02,0,110.9,13.2,22.54,211.1
"2009-07-27 00:18:30",1097606,1.672,257.3,3.716,0.119,20.03,108.7627,21.72,22.72,47,0,111,13.2,22.54,219.3
"2009-07-27 00:19:00",1097607,1.424,241.7,4.664,0.119,20.05,108.7624,21.72,22.73,46.97,0,111,13.2,22.54,203.7
"2009-07-27 00:19:30",1097608,1.455,232.7,5.52,0.068,19.98,108.7627,21.72,22.72,46.89,0,110.9,13.2,22.54,194.7
"2009-07-27 00:20:00",1097609,1.69,237.2,4.327,0.119,20,108.7621,21.72,22.73,47.11,0,110.9,13.2,22.54,199.2
"2009-07-27 00:20:30",1097610,1.642,246.2,4.828,0.212,20.06,108.7618,21.71,22.72,47.23,0,111,13.19,22.54,208.2
"2009-07-27 00:21:00",1097611,1.585,228.8,4.749,0.088,20.04,108.7634,21.72,22.72,47.26,0,110.9,13.19,22.55,190.8
"2009-07-27 00:21:30",1097612,1.243,231.8,5.502,0.129,20.04,108.7627,21.72,22.73,47.29,0,110.9,13.19,22.54,193.8
"2009-07-27 00:22:00",1097613,1.569,232.9,2.519,0.09,20.1,108.7627,21.72,22.72,47.25,0,110.9,13.19,22.54,194.9
"2009-07-27 00:22:30",1097614,1.763,240.9,8.99,0.219,20.17,108.7624,21.72,22.72,47.25,0,110.9,13.19,22.54,202.9
"2009-07-27 00:23:00",1097615,1.747,249,4.93,0.242,20.12,108.7627,21.72,22.72,47.22,0,110.9,13.19,22.54,211.0
"2009-07-27 00:23:30",1097616,1.395,247.6,7.285,0.139,20.1,108.7624,21.72,22.7,47.23,0,110.9,13.19,22.54,209.6
"2009-07-27 00:24:00",1097617,1.328,264.8,6.872,0.141,20.09,108.7634,21.72,22.69,47.22,0,111,13.19,22.55,226.8
"2009-07-27 00:24:30",1097618,1.121,250.6,17.82,0.188,20.03,108.7625,21.72,22.67,47.17,0,111,13.19,22.54,212.6
"2009-07-27 00:25:00",1097619,1.182,222.2,5.571,0.15,20.04,108.7627,21.72,22.66,47.19,0,110.9,13.19,22.54,184.2
"2009-07-27 00:25:30",1097620,1.543,222.1,3.367,0.217,19.96,108.7627,21.72,22.66,47.23,0,110.9,13.19,22.54,184.1
"2009-07-27 00:26:00",1097621,1.841,223.7,4.629,0.11,20.02,108.7627,21.72,22.67,47.18,0,110.9,13.2,22.54,185.7
"2009-07-27 00:26:30",1097622,1.703,230.7,3.492,0.077,20.03,108.7624,21.72,22.66,47.13,0,110.9,13.2,22.54,192.7
"2009-07-27 00:27:00",1097623,1.686,222.5,2.186,0.101,19.99,108.7627,21.72,22.69,47.02,0,110.9,13.2,22.54,184.5
"2009-07-27 00:27:30",1097624,1.598,219.9,2.432,0.059,19.99,108.7627,21.72,22.68,46.93,0,111,13.2,22.54,181.9
"2009-07-27 00:28:00",1097625,1.583,222.9,6.051,0.16,20.07,108.7624,21.72,22.68,46.87,0,110.9,13.2,22.54,184.9
"2009-07-27 00:28:30",1097626,1.466,220.3,4.004,0.145,20.03,108.7627,21.72,22.68,46.78,0,110.9,13.2,22.54,182.3
"2009-07-27 00:29:00",1097627,1.189,215.8,5.881,0.142,20.08,108.7624,21.72,22.71,46.7,0,110.9,13.2,22.54,177.8
"2009-07-27 00:29:30",1097628,1.376,234.4,3.535,0.103,20.03,108.7627,21.72,22.7,46.81,0,111,13.2,22.54,196.4
"2009-07-27 00:30:00",1097629,1.292,237.9,10.02,0.124,20.07,108.7627,21.72,22.7,46.89,0,110.9,13.2,22.54,199.9
"2009-07-27 00:30:30",1097630,0.993,239.4,3.293,0.201,20.17,108.7631,21.72,22.7,46.51,0,110.9,13.2,22.55,201.4
"2009-07-27 00:31:00",1097631,0.781,227.2,5.707,0.193,20.04,108.7631,21.72,22.71,46.52,0,110.9,13.2,22.55,189.2
"2009-07-27 00:31:30",1097632,1.123,222.5,9.99,0.107,20.04,108.7631,21.72,22.7,46.75,0,110.9,13.2,22.55,184.5
"2009-07-27 00:32:00",1097633,1.143,224.4,4.907,0.091,20,108.7627,21.72,22.72,46.75,0,110.9,13.2,22.54,186.4
"2009-07-27 00:32:30",1097634,1.294,219,4.13,0.071,20.03,108.7631,21.72,22.73,46.79,0,110.9,13.2,22.55,181.0
"2009-07-27 00:33:00",1097635,1.277,209.5,5.438,0.191,20.02,108.7627,21.72,22.73,46.62,0,110.9,13.2,22.54,171.5
"2009-07-27 00:33:30",1097636,1.42,224.1,5.198,0.131,20.03,108.7633,21.72,22.73,46.39,0,110.9,13.2,22.55,186.1
"2009-07-27 00:34:00",1097637,1.117,219,4.799,0.174,20.07,108.7627,21.72,22.73,46.24,0,110.9,13.2,22.54,181.0
"2009-07-27 00:34:30",1097638,1.071,222.1,3.449,0.109,20.03,108.7631,21.72,22.72,46.25,0,110.9,13.2,22.55,184.1
"2009-07-27 00:35:00",1097639,1.167,212.9,4.551,0.126,19.99,108.7631,21.72,22.72,46.26,0,110.9,13.2,22.55,174.9
"2009-07-27 00:35:30",1097640,0.939,206.8,7.077,0.152,20.02,108.7634,21.72,22.73,46.3,0,110.9,13.2,22.55,168.8
"2009-07-27 00:36:00",1097641,1.141,216.6,8.72,0.165,20.01,108.7648,21.72,22.71,46.37,0,110.9,13.2,22.55,178.6
"2009-07-27 00:36:30",1097642,1.113,208.9,9,0.087,20.04,108.7653,21.72,22.72,46.32,0,110.9,13.2,22.55,170.9
"2009-07-27 00:37:00",1097643,0.941,224.5,5.078,0.183,20.09,108.7682,21.73,22.73,45.97,0,110.9,13.2,22.56,186.5
"2009-07-27 00:37:30",1097644,0.963,225.9,5.871,0.114,20.06,108.7693,21.73,22.73,45.79,0,110.9,13.2,22.56,187.9
"2009-07-27 00:38:00",1097645,0.62,232.9,3.634,0.084,20.08,108.7732,21.74,22.73,45.76,0,110.9,13.19,22.57,194.9
"2009-07-27 00:38:30",1097646,0.833,224.6,3.547,0.07,19.98,108.7735,21.74,22.75,45.6,0,110.9,13.19,22.57,186.6
"2009-07-27 00:39:00",1097647,0.924,220.7,4.445,0.063,19.96,108.7777,21.76,22.75,45.87,0,110.9,13.19,22.58,182.7
"2009-07-27 00:39:30",1097648,0.974,221.3,3.921,0.08,19.98,108.7833,21.77,22.75,45.87,0,110.9,13.19,22.60,183.3
"2009-07-27 00:40:00",1097649,0.918,216.4,2.987,0.057,20.05,108.7912,21.79,22.75,45.85,0,110.9,13.19,22.62,178.4
"2009-07-27 00:40:30",1097650,0.986,220.5,8.63,0.087,20.03,108.7969,21.8,22.76,45.78,0,110.9,13.19,22.63,182.5
"2009-07-27 00:41:00",1097651,0.868,233.5,3.803,0.081,20.06,108.7956,21.8,22.77,45.79,0,110.9,13.19,22.63,195.5
"2009-07-27 00:41:30",1097652,0.872,232.9,2.688,0.093,20.03,108.7962,21.8,22.77,45.77,0,110.9,13.19,22.63,194.9
"2009-07-27 00:42:00",1097653,0.704,237.1,9.42,0.145,20.02,108.7968,21.8,22.78,45.76,0,110.9,13.19,22.63,199.1
"2009-07-27 00:42:30",1097654,0.61,238.7,7.062,0.065,20.05,108.7968,21.8,22.79,45.73,0,110.9,13.19,22.63,200.7
"2009-07-27 00:43:00",1097655,0.734,227.4,5.739,0.107,19.97,108.7974,21.81,22.79,45.63,0,110.9,13.2,22.63,189.4
"2009-07-27 00:43:30",1097656,0.744,212.8,3.958,0.085,19.97,108.7965,21.8,22.79,45.61,0,110.9,13.2,22.63,174.8
"2009-07-27 00:44:00",1097657,1.037,203.5,2.948,0.064,19.99,108.7965,21.8,22.81,45.65,0,110.9,13.2,22.63,165.5
"2009-07-27 00:44:30",1097658,1.238,220.6,7.763,0.079,20.01,108.7965,21.8,22.81,45.78,0,110.9,13.2,22.63,182.6
"2009-07-27 00:45:00",1097659,1.161,216.8,3.733,0.173,19.95,108.7968,21.8,22.82,45.62,0,110.9,13.2,22.63,178.8
"2009-07-27 00:45:30",1097660,0.96,226.7,4.092,0.071,19.91,108.7965,21.8,22.81,45.62,0,110.9,13.2,22.63,188.7
"2009-07-27 00:46:00",1097661,1.139,229.4,2.436,0.134,20.01,108.7974,21.81,22.82,45.75,0,110.9,13.2,22.63,191.4
"2009-07-27 00:46:30",1097662,1.238,225.6,1.982,0.048,20.03,108.8021,21.82,22.81,45.71,0,110.9,13.2,22.65,187.6
"2009-07-27 00:47:00",1097663,1.222,223.8,1.282,0.027,20.03,108.8094,21.84,22.81,45.68,0,110.9,13.2,22.66,185.8
"2009-07-27 00:47:30",1097664,1.231,225.2,1.06,0.037,20.04,108.8214,21.87,22.84,45.61,0,110.9,13.2,22.70,187.2
"2009-07-27 00:48:00",1097665,1.203,221.1,1.155,0.031,19.95,108.8296,21.89,22.82,45.53,0,110.9,13.2,22.72,183.1
"2009-07-27 00:48:30",1097666,1.221,219.9,1.416,0.037,19.98,108.8302,21.89,22.85,45.54,0,111,13.2,22.72,181.9
"2009-07-27 00:49:00",1097667,1.216,219.8,0.596,0.018,19.94,108.8284,21.89,22.85,45.48,0,110.9,13.2,22.71,181.8
"2009-07-27 00:49:30",1097668,1.229,222.9,2.341,0.043,19.96,108.8284,21.89,22.86,45.44,0,110.9,13.2,22.71,184.9
"2009-07-27 00:50:00",1097669,1.099,225.5,3.525,0.118,19.95,108.8287,21.89,22.86,45.41,0,110.9,13.2,22.71,187.5
"2009-07-27 00:50:30",1097670,1.575,217.2,1.938,0.26,19.86,108.8284,21.89,22.88,45.23,0,110.9,13.2,22.71,179.2
"2009-07-27 00:51:00",1097671,1.718,214.7,3.816,0.148,19.89,108.8292,21.89,22.88,45.24,0,110.9,13.2,22.72,176.7
"2009-07-27 00:51:30",1097672,1.461,209.2,2.483,0.069,19.9,108.8334,21.9,22.89,45.28,0,110.9,13.2,22.73,171.2
"2009-07-27 00:52:00",1097673,1.353,216,3.501,0.056,19.86,108.8413,21.92,22.9,45.2,0,110.9,13.2,22.75,178.0
"2009-07-27 00:52:30",1097674,1.429,214.4,3.008,0.053,19.8,108.8521,21.95,22.91,45.08,0,110.9,13.2,22.77,176.4
"2009-07-27 00:53:00",1097675,1.34,216.6,4.915,0.097,19.87,108.8569,21.96,22.91,45.05,0,111,13.2,22.79,178.6
"2009-07-27 00:53:30",1097676,1.334,217.2,3.89,0.062,19.83,108.8545,21.95,22.92,44.99,0,111,13.2,22.78,179.2
"2009-07-27 00:54:00",1097677,1.216,218,3.78,0.051,19.84,108.8542,21.95,22.94,44.86,0,110.9,13.2,22.78,180.0
"2009-07-27 00:54:30",1097678,1.3,219.3,1.803,0.098,19.81,108.8529,21.95,22.95,44.81,0,110.9,13.19,22.78,181.3
"2009-07-27 00:55:00",1097679,1.408,220.5,1.344,0.058,19.89,108.8487,21.94,22.95,44.87,0,110.9,13.19,22.77,182.5
"2009-07-27 00:55:30",1097680,1.443,220.6,2.243,0.034,19.91,108.855,21.95,22.97,44.9,0,111,13.19,22.78,182.6
"2009-07-27 00:56:00",1097681,1.422,223.3,1.135,0.052,19.96,108.8679,21.99,22.98,44.81,0,110.9,13.19,22.82,185.3
"2009-07-27 00:56:30",1097682,1.374,221.5,1.545,0.031,19.96,108.8705,21.99,22.99,44.7,0,110.9,13.19,22.82,183.5
"2009-07-27 00:57:00",1097683,1.314,226.5,1.961,0.075,19.98,108.8781,22.01,23,44.58,0,110.9,13.19,22.84,188.5
"2009-07-27 00:57:30",1097684,1.264,228.5,1.251,0.051,20.04,108.8757,22.01,23.01,44.45,0,111,13.19,22.84,190.5
"2009-07-27 00:58:00",1097685,1.147,235.6,2.431,0.058,20.03,108.875,22.01,23.02,44.31,0,111,13.19,22.83,197.6
"2009-07-27 00:58:30",1097686,1.05,236.9,1.695,0.045,20.06,108.8732,22,23.02,44.22,0,110.9,13.19,22.83,198.9
"2009-07-27 00:59:00",1097687,0.991,241,1.698,0.044,20.07,108.8717,22,23.04,44.16,0,110.9,13.19,22.83,203.0
"2009-07-27 00:59:30",1097688,0.959,242,4.181,0.085,20.06,108.8746,22,23.04,44.1,0,111,13.19,22.83,204.0
"2009-07-27 01:00:00",1097689,0.903,246.1,1.79,0.035,20.07,108.8781,22.01,23.06,44.08,0,111,13.19,22.84,208.1
"2009-07-27 01:00:30",1097690,1.019,246.9,3.45,0.125,20.08,108.8919,22.05,23.06,44.05,0,111,13.19,22.88,208.9
"2009-07-27 01:01:00",1097691,0.952,246.5,3.177,0.043,20.08,108.9007,22.07,23.07,43.97,0,111,13.2,22.90,208.5
"2009-07-27 01:01:30",1097692,0.888,246.2,2.936,0.071,20.1,108.9073,22.09,23.08,43.93,0,111,13.2,22.92,208.2
"2009-07-27 01:02:00",1097693,0.991,247.6,4.059,0.164,20.12,108.9054,22.08,23.09,43.87,0,111,13.2,22.91,209.6
"2009-07-27 01:02:30",1097694,1.211,240.7,4.581,0.101,20.11,108.9069,22.09,23.1,43.77,0,111,13.2,22.92,202.7
"2009-07-27 01:03:00",1097695,1.32,244.7,1.239,0.036,20.04,108.9045,22.08,23.1,43.72,0,111,13.2,22.91,206.7
"2009-07-27 01:03:30",1097696,1.318,249.7,4.598,0.092,20.12,108.9054,22.08,23.11,43.64,0,111,13.2,22.91,211.7
"2009-07-27 01:04:00",1097697,1.099,258.2,4.756,0.166,20.2,108.906,22.08,23.12,43.52,0,111,13.2,22.91,220.2
"2009-07-27 01:04:30",1097698,1.156,247.2,3.89,0.089,20.14,108.9054,22.08,23.11,43.4,0,111,13.2,22.91,209.2
"2009-07-27 01:05:00",1097699,1.071,260,6.3,0.134,20.2,108.9048,22.08,23.13,43.51,0,111,13.2,22.91,222.0
"2009-07-27 01:05:30",1097700,1.052,255.6,4.388,0.09,20.21,108.9048,22.08,23.13,43.47,0,111,13.2,22.91,217.6
"2009-07-27 01:06:00",1097701,1.168,256.5,1.421,0.034,20.24,108.9051,22.08,23.14,43.46,0,111,13.2,22.91,218.5
"2009-07-27 01:06:30",1097702,1.184,257.9,0.84,0.032,20.2,108.9048,22.08,23.14,43.46,0,111,13.2,22.91,219.9
"2009-07-27 01:07:00",1097703,1.121,256.8,1.825,0.047,20.21,108.9054,22.08,23.13,43.42,0,111,13.2,22.91,218.8
"2009-07-27 01:07:30",1097704,0.971,270.6,3.058,0.086,20.2,108.9072,22.09,23.14,43.44,0,111,13.2,22.92,232.6
"2009-07-27 01:08:00",1097705,0.838,274.4,3.839,0.069,20.26,108.9051,22.08,23.16,43.47,0,111,13.2,22.91,236.4
"2009-07-27 01:08:30",1097706,0.917,273.9,1.046,0.042,20.18,108.9048,22.08,23.16,43.42,0,111,13.2,22.91,235.9
"2009-07-27 01:09:00",1097707,0.874,277.1,0.906,0.022,20.2,108.9051,22.08,23.16,43.46,0,111,13.2,22.91,239.1
"2009-07-27 01:09:30",1097708,0.921,277.3,0.705,0.03,20.19,108.9072,22.09,23.15,43.47,0,111,13.2,22.92,239.3
"2009-07-27 01:10:00",1097709,0.886,278.6,1.547,0.031,20.22,108.9072,22.09,23.16,43.5,0,111,13.2,22.92,240.6
"2009-07-27 01:10:30",1097710,0.872,277.1,1.605,0.027,20.22,108.9083,22.09,23.16,43.47,0,111,13.2,22.92,239.1
"2009-07-27 01:11:00",1097711,1.089,276.8,7.029,0.123,20.2,108.9056,22.08,23.16,43.49,0,111,13.2,22.91,238.8
"2009-07-27 01:11:30",1097712,1.173,291.2,9.26,0.08,20.22,108.9078,22.09,23.16,43.45,0,111,13.19,22.92,253.2
"2009-07-27 01:12:00",1097713,1.575,269.6,9.79,0.425,20.22,108.9078,22.09,23.16,43.32,0,111,13.19,22.92,231.6
"2009-07-27 01:12:30",1097714,1.979,265.2,3.213,0.134,20.21,108.9075,22.09,23.16,43.18,0,111,13.19,22.92,227.2
"2009-07-27 01:13:00",1097715,1.851,259.4,3.878,0.132,20.23,108.9075,22.09,23.16,43.07,0,111,13.19,22.92,221.4
"2009-07-27 01:13:30",1097716,1.794,252.2,3.341,0.1,20.24,108.9085,22.09,23.15,43.07,0,111,13.19,22.92,214.2
"2009-07-27 01:14:00",1097717,1.807,253,4.821,0.128,20.25,108.9088,22.09,23.15,43.14,0,111,13.19,22.92,215.0
"2009-07-27 01:14:30",1097718,1.841,246.7,1.978,0.127,20.26,108.9063,22.09,23.16,43.15,0,111,13.19,22.91,208.7
"2009-07-27 01:15:00",1097719,1.758,247.6,1.694,0.098,20.28,108.9097,22.09,23.15,42.91,0,111,13.19,22.92,209.6
"2009-07-27 01:15:30",1097720,1.754,257.8,6.131,0.146,20.29,108.9072,22.09,23.15,42.78,0,111,13.19,22.92,219.8
"2009-07-27 01:16:00",1097721,1.736,251.6,5.915,0.165,20.31,108.9079,22.09,23.13,42.92,0,111,13.19,22.92,213.6
"2009-07-27 01:16:30",1097722,1.763,250.4,4.785,0.111,20.27,108.9038,22.08,23.14,43.15,0,111,13.19,22.91,212.4
"2009-07-27 01:17:00",1097723,1.653,245,5.29,0.152,20.3,108.8861,22.03,23.12,43.51,0,111,13.19,22.86,207.0
"2009-07-27 01:17:30",1097724,1.781,253.7,4.412,0.081,20.3,108.879,22.02,23.11,43.83,0,111,13.19,22.84,215.7
"2009-07-27 01:18:00",1097725,1.552,251,2.397,0.124,20.29,108.8793,22.02,23.08,43.89,0,111,13.2,22.85,213.0
"2009-07-27 01:18:30",1097726,1.448,249.3,2.888,0.148,20.32,108.8815,22.02,23.07,43.75,0,111,13.2,22.85,211.3
"2009-07-27 01:19:00",1097727,1.504,251.6,2.085,0.111,20.32,108.8839,22.03,23.07,43.03,0,111,13.2,22.86,213.6
"2009-07-27 01:19:30",1097728,1.493,250.8,2.202,0.051,20.34,108.8858,22.03,23.05,42.93,0,111,13.2,22.86,212.8
"2009-07-27 01:20:00",1097729,1.459,251.3,2.6,0.045,20.34,108.887,22.04,23.03,43.02,0,111,13.2,22.86,213.3
"2009-07-27 01:20:30",1097730,1.362,254.4,2.197,0.054,20.35,108.8901,22.04,23.05,43,0,111,13.2,22.87,216.4
"2009-07-27 01:21:00",1097731,1.326,251.4,1.18,0.042,20.33,108.889,22.04,23.03,42.97,0,111,13.2,22.87,213.4
"2009-07-27 01:21:30",1097732,1.383,253.2,1.79,0.028,20.42,108.8898,22.04,23.03,42.93,0,111,13.2,22.87,215.2
"2009-07-27 01:22:00",1097733,1.386,254.9,2.676,0.067,20.4,108.8842,22.03,23.02,42.93,0,111,13.2,22.86,216.9
"2009-07-27 01:22:30",1097734,1.185,262,3.15,0.096,20.4,108.8767,22.01,23.02,42.98,0,111,13.2,22.84,224.0
"2009-07-27 01:23:00",1097735,1.023,255.9,2.485,0.048,20.36,108.8697,21.99,23.02,43.08,0,111,13.2,22.82,217.9
"2009-07-27 01:23:30",1097736,1.079,256.5,3.765,0.058,20.37,108.8653,21.98,23.01,43.19,0,110.9,13.2,22.81,218.5
"2009-07-27 01:24:00",1097737,1.245,265.7,3.258,0.046,20.4,108.8624,21.97,23.01,43.21,0,111,13.2,22.80,227.7
"2009-07-27 01:24:30",1097738,1.397,269.7,2.027,0.059,20.43,108.8636,21.98,23,43.2,0,111,13.2,22.80,231.7
"2009-07-27 01:25:00",1097739,1.257,273,3.973,0.07,20.43,108.864,21.98,22.99,43.17,0,111,13.2,22.81,235.0
"2009-07-27 01:25:30",1097740,1.33,268.2,1.399,0.056,20.46,108.8643,21.98,22.99,43.17,0,111,13.2,22.81,230.2
"2009-07-27 01:26:00",1097741,1.247,265.4,1.433,0.053,20.44,108.8649,21.98,22.99,43.08,0,111,13.2,22.81,227.4
"2009-07-27 01:26:30",1097742,1.289,265.9,2.439,0.07,20.45,108.8646,21.98,22.97,43.11,0,111,13.2,22.81,227.9
"2009-07-27 01:27:00",1097743,1.557,270.2,1.561,0.08,20.42,108.858,21.96,22.97,43.11,0,110.9,13.2,22.79,232.2
"2009-07-27 01:27:30",1097744,1.522,262.3,6.609,0.14,20.4,108.8464,21.93,22.97,43.28,0,110.9,13.2,22.76,224.3
"2009-07-27 01:28:00",1097745,1.415,259.1,4.686,0.123,20.38,108.8401,21.92,22.97,43.57,0,110.9,13.2,22.74,221.1
"2009-07-27 01:28:30",1097746,1.248,259.4,4.114,0.082,20.41,108.837,21.91,22.94,43.72,0,110.9,13.2,22.74,221.4
"2009-07-27 01:29:00",1097747,1.228,267.8,2.131,0.061,20.45,108.8348,21.9,22.94,43.78,0,110.9,13.2,22.73,229.8
"2009-07-27 01:29:30",1097748,1.371,261,2.956,0.058,20.49,108.8382,21.91,22.94,43.68,0,110.9,13.2,22.74,223.0
"2009-07-27 01:30:00",1097749,1.379,265.6,1.178,0.051,20.56,108.8391,21.91,22.94,43.54,0,110.9,13.19,22.74,227.6
"2009-07-27 01:30:30",1097750,1.373,263.6,1.098,0.058,20.54,108.8385,21.91,22.91,43.41,0,110.9,13.19,22.74,225.6
"2009-07-27 01:31:00",1097751,1.348,263.8,0.929,0.032,20.53,108.8391,21.91,22.92,43.35,0,110.9,13.19,22.74,225.8
"2009-07-27 01:31:30",1097752,1.265,262.5,1.882,0.046,20.55,108.8357,21.9,22.91,43.36,0,110.9,13.19,22.73,224.5
"2009-07-27 01:32:00",1097753,1.028,262,2.081,0.064,20.47,108.8231,21.87,22.91,43.45,0,110.9,13.19,22.70,224.0
"2009-07-27 01:32:30",1097754,0.901,259.7,0.803,0.039,20.52,108.8121,21.84,22.89,43.48,0,110.9,13.2,22.67,221.7
"2009-07-27 01:33:00",1097755,0.973,256.2,2.929,0.151,20.49,108.8057,21.83,22.87,43.51,0,110.9,13.2,22.66,218.2
"2009-07-27 01:33:30",1097756,1.165,250.7,1.751,0.054,20.52,108.8057,21.83,22.88,43.7,0,110.9,13.2,22.66,212.7
"2009-07-27 01:34:00",1097757,1.084,250.8,2.241,0.043,20.49,108.8057,21.83,22.89,43.82,0,110.9,13.2,22.66,212.8
"2009-07-27 01:34:30",1097758,1.012,256.8,2.656,0.033,20.44,108.8057,21.83,22.86,43.85,0,110.9,13.2,22.66,218.8
"2009-07-27 01:35:00",1097759,0.957,258.8,1.941,0.073,20.48,108.8057,21.83,22.86,43.81,0,110.9,13.2,22.66,220.8
"2009-07-27 01:35:30",1097760,0.955,254.3,3.388,0.048,20.5,108.8057,21.83,22.85,43.76,0,110.9,13.2,22.66,216.3
"2009-07-27 01:36:00",1097761,1.17,254.4,3.158,0.069,20.52,108.7978,21.81,22.84,43.73,0,110.9,13.2,22.64,216.4
"2009-07-27 01:36:30",1097762,1.169,259.2,2.22,0.051,20.49,108.7835,21.77,22.83,43.76,0,110.9,13.2,22.60,221.2
"2009-07-27 01:37:00",1097763,1.15,253.7,2.595,0.053,20.51,108.7759,21.75,22.83,43.79,0,110.9,13.2,22.58,215.7
"2009-07-27 01:37:30",1097764,1.188,251.5,1.414,0.056,20.55,108.7719,21.74,22.81,43.78,0,110.9,13.2,22.57,213.5
"2009-07-27 01:38:00",1097765,1.193,251.1,2.823,0.042,20.55,108.7719,21.74,22.81,43.77,0,110.9,13.2,22.57,213.1
"2009-07-27 01:38:30",1097766,1.184,250.1,2.88,0.047,20.58,108.7719,21.74,22.8,43.8,0,110.9,13.2,22.57,212.1
"2009-07-27 01:39:00",1097767,1.152,250.6,3.709,0.064,20.56,108.7719,21.74,22.77,43.8,0,110.9,13.21,22.57,212.6
"2009-07-27 01:39:30",1097768,1.278,257.7,2.618,0.11,20.54,108.7702,21.74,22.78,43.81,0,110.9,13.21,22.56,219.7
"2009-07-27 01:40:00",1097769,1.294,256.5,2.367,0.059,20.53,108.7576,21.7,22.76,43.86,0,110.9,13.21,22.53,218.5
"2009-07-27 01:40:30",1097770,1.119,254.8,3.43,0.048,20.53,108.7469,21.68,22.76,43.86,0,110.9,13.21,22.50,216.8
"2009-07-27 01:41:00",1097771,1.284,257.8,1.401,0.085,20.52,108.7407,21.66,22.74,43.85,0,110.9,13.21,22.49,219.8
"2009-07-27 01:41:30",1097772,1.287,251.9,2.271,0.019,20.54,108.7382,21.65,22.74,43.88,0,110.9,13.21,22.48,213.9
"2009-07-27 01:42:00",1097773,1.386,252.4,2.477,0.065,20.55,108.7382,21.65,22.73,43.92,0,110.9,13.21,22.48,214.4
"2009-07-27 01:42:30",1097774,1.365,250.1,2.465,0.038,20.58,108.7382,21.65,22.71,43.99,0,110.9,13.21,22.48,212.1
"2009-07-27 01:43:00",1097775,1.485,251.3,3.786,0.055,20.55,108.7382,21.65,22.71,43.91,0,110.9,13.21,22.48,213.3
"2009-07-27 01:43:30",1097776,1.413,249.1,2.123,0.05,20.61,108.736,21.65,22.71,43.85,0,110.9,13.21,22.48,211.1
"2009-07-27 01:44:00",1097777,1.339,248.2,1.67,0.061,20.65,108.7209,21.61,22.7,43.84,0,110.9,13.21,22.44,210.2
"2009-07-27 01:44:30",1097778,1.309,247.6,1.917,0.041,20.66,108.7098,21.58,22.69,43.81,0,110.9,13.21,22.41,209.6
"2009-07-27 01:45:00",1097779,1.304,252.3,3.181,0.09,20.63,108.7057,21.57,22.67,43.79,0,110.9,13.21,22.40,214.3
"2009-07-27 01:45:30",1097780,1.284,256.2,1.614,0.052,20.59,108.7072,21.57,22.66,43.79,0,110.9,13.21,22.40,218.2
"2009-07-27 01:46:00",1097781,1.288,255.8,3.067,0.069,20.59,108.7075,21.58,22.65,43.77,0,110.9,13.2,22.40,217.8
"2009-07-27 01:46:30",1097782,1.458,259.7,2.219,0.058,20.57,108.7073,21.57,22.64,43.77,0,110.9,13.2,22.40,221.7
"2009-07-27 01:47:00",1097783,1.505,261.3,1.628,0.082,20.56,108.7088,21.58,22.64,43.81,0,110.9,13.2,22.41,223.3
"2009-07-27 01:47:30",1097784,1.564,260.4,1.333,0.041,20.57,108.7074,21.57,22.63,43.84,0,110.9,13.2,22.40,222.4
"2009-07-27 01:48:00",1097785,1.553,257.6,0.926,0.051,20.59,108.6918,21.53,22.61,43.89,0,110.9,13.2,22.36,219.6